Location: Borz?cin
(51.1714°N, 19.6030°E)
Time: 07:31:52
(UTC+00:00)

Cosmos 2123 Rocket - Pass Details

Date: 19 May 2025
Orbit: 960 x 992 km, 82.9° (Epoch: 16 June)

Event Time Altitude Azimuth Distance (km) Brightness Sun altitude
Exits shadow 23:30:44 28° 184° (S) 1,756 4.8 -17.9°
Maximum altitude 23:34:16 85° 99° (E) 1,003 4.0 -17.8°
Drops below altitude 10° 23:40:39 10° 11° (N) 2,763 7.7 -17.5°
Sets 23:43:10 0° 11° (N) 3,713 8.8 -17.4°
